CP9 (44360 NORAD) Tracking and Keplerian Element Data

This shows tracking and keplerian element data for the satellite.

Feedback or suggestion? Click here.




ElementValue
Catalog44360
NameCP9
Epoch Orbit1696
Epoch Day290.08845137
Epoch Year2019
RAAN177.1579
Inclination28.5181
Eccentricity0.0377743
Argument of Perigee234.881
Mean Anonmoly121.5812
Mean Motion15.02800914
Decay Rate0.00019511
L11 44360U 19036X 19290.08845137 .00019511 00000-0 26092-3 0 9992
L22 44360 28.5181 177.1579 0377743 234.8810 121.5812 15.02800914 16960

Live tracking and technical data element details for CP9 (NORAD 44360). CP9 can be tracked NOW for your location showing map with azimuth and elevation plus other details from your city location.

Track the satellite on the map from your city or location and see movement details for azimuth, elevation, latitude, longitude, range, height, and movement on the map or in text.







IsCatalogInMostPopularTable: catalog: 44360, numindb: 22
Update: records affected: 1



GetName: 44360 CP9

Hit Count: updated at: Tue, 22 Oct 2019 23:30:53 GMT